Weather reports worldwide

Advertisment
Termoli, Italy (16232): temperature & dewpoint: 14.01.2021 14:00:00 - 20.01.2021 14:00:00 (CET)Termoli, Italy (16232): wind speed: 14.01.2021 14:00:00 - 20.01.2021 14:00:00 (CET)Termoli, Italy (16232): wind direction: 14.01.2021 14:00:00 - 20.01.2021 14:00:00 (CET)Termoli, Italy (16232): reduced air pressure: 14.01.2021 14:00:00 - 20.01.2021 14:00:00 (CET)Termoli, Italy (16232): visibility: 14.01.2021 14:00:00 - 20.01.2021 14:00:00 (CET)Termoli, Italy (16232): sunshine duration: 14.01.2021 14:00:00 - 20.01.2021 14:00:00 (CET)
Date & Time tt [°C] td [°C] ff [km/h] ff [kn] dd ppp [hPa] vv [km] sd [min]
20.01.2021 14:00:00 - - - - - - - -
20.01.2021 13:00:00 10,8 6,7 0 0 N 1022,6 25 60
20.01.2021 12:00:00 - - - - - - - -
20.01.2021 11:00:00 - - - - - - - -
20.01.2021 10:00:00 10,0 7,1 2 1 E 1024,5 25 60
20.01.2021 09:00:00 - - - - - - - -
20.01.2021 08:00:00 - - - - - - - -
20.01.2021 07:00:00 8,4 5,7 2 1 S 1023,5 25 0
20.01.2021 06:00:00 - - - - - - - -
20.01.2021 05:00:00 - - - - - - - -
20.01.2021 04:00:00 - - - - - - - -
20.01.2021 03:00:00 - - - - - - - -
20.01.2021 02:00:00 - - - - - - - -
20.01.2021 01:00:00 - - - - - - - -
20.01.2021 00:00:00 - - - - - - - -
19.01.2021 23:00:00 - - - - - - - -
19.01.2021 22:00:00 - - - - - - - -
19.01.2021 21:00:00 - - - - - - - -
19.01.2021 20:00:00 - - - - - - - -
19.01.2021 19:00:00 9,8 4,2 9 5 SE 1024,7 25 0
19.01.2021 18:00:00 - - - - - - - -
19.01.2021 17:00:00 - - - - - - - -
19.01.2021 16:00:00 10,6 8,4 5 3 ESE 1024,4 25 60
19.01.2021 15:00:00 - - - - - - - -
19.01.2021 14:00:00 - - - - - - - -
19.01.2021 13:00:00 11,8 4,8 0 0 N 1025,5 25 60
19.01.2021 12:00:00 - - - - - - - -
19.01.2021 11:00:00 - - - - - - - -
19.01.2021 10:00:00 7,2 3,2 2 1 SE 1026,5 25 60
19.01.2021 09:00:00 - - - - - - - -
19.01.2021 08:00:00 - - - - - - - -
19.01.2021 07:00:00 6,6 0,7 11 6 SSW 1025,3 25 0
19.01.2021 06:00:00 - - - - - - - -
19.01.2021 05:00:00 - - - - - - - -
19.01.2021 04:00:00 - - - - - - - -
19.01.2021 03:00:00 - - - - - - - -
19.01.2021 02:00:00 - - - - - - - -
19.01.2021 01:00:00 - - - - - - - -
19.01.2021 00:00:00 - - - - - - - -
18.01.2021 23:00:00 - - - - - - - -
18.01.2021 22:00:00 - - - - - - - -
18.01.2021 21:00:00 - - - - - - - -
18.01.2021 20:00:00 - - - - - - - -
18.01.2021 19:00:00 7,2 4,3 13 7 W 1023,9 15 -
18.01.2021 18:00:00 - - - - - - - -
18.01.2021 17:00:00 - - - - - - - -
18.01.2021 16:00:00 9,0 5,9 15 8 NNW 1023,2 20 36
18.01.2021 15:00:00 - - - - - - - -
18.01.2021 14:00:00 - - - - - - - -
18.01.2021 13:00:00 7,4 5,4 26 14 NW 1022,8 20 12
18.01.2021 12:00:00 - - - - - - - -
18.01.2021 11:00:00 - - - - - - - -
18.01.2021 10:00:00 6,8 1,9 26 14 N 1022,7 20 42
18.01.2021 09:00:00 - - - - - - - -
18.01.2021 08:00:00 - - - - - - - -
18.01.2021 07:00:00 6,8 1,1 26 14 N 1021,7 18 -
18.01.2021 06:00:00 - - - - - - - -
18.01.2021 05:00:00 - - - - - - - -
18.01.2021 04:00:00 - - - - - - - -
18.01.2021 03:00:00 - - - - - - - -
18.01.2021 02:00:00 - - - - - - - -
18.01.2021 01:00:00 - - - - - - - -
18.01.2021 00:00:00 - - - - - - - -
17.01.2021 23:00:00 - - - - - - - -
17.01.2021 22:00:00 - - - - - - - -
17.01.2021 21:00:00 - - - - - - - -
17.01.2021 20:00:00 - - - - - - - -
17.01.2021 19:00:00 6,8 3,1 18 10 W 1013,8 15 -
17.01.2021 18:00:00 - - - - - - - -
17.01.2021 17:00:00 - - - - - - - -
17.01.2021 16:00:00 7,2 2,5 4 2 NW 1013,5 20 0
17.01.2021 15:00:00 - - - - - - - -
17.01.2021 14:00:00 - - - - - - - -
17.01.2021 13:00:00 7,0 3,8 0 0 N 1014,4 20 0
17.01.2021 12:00:00 - - - - - - - -
17.01.2021 11:00:00 - - - - - - - -
17.01.2021 10:00:00 5,0 0,8 8 4 S 1015,7 20 0
17.01.2021 09:00:00 - - - - - - - -
17.01.2021 08:00:00 - - - - - - - -
17.01.2021 07:00:00 5,0 -0,2 18 10 S 1017,2 20 -
17.01.2021 06:00:00 - - - - - - - -
17.01.2021 05:00:00 - - - - - - - -
17.01.2021 04:00:00 - - - - - - - -
17.01.2021 03:00:00 - - - - - - - -
17.01.2021 02:00:00 - - - - - - - -
17.01.2021 01:00:00 - - - - - - - -
17.01.2021 00:00:00 - - - - - - - -
16.01.2021 23:00:00 - - - - - - - -
16.01.2021 22:00:00 - - - - - - - -
16.01.2021 21:00:00 - - - - - - - -
16.01.2021 20:00:00 - - - - - - - -
16.01.2021 19:00:00 5,4 3,6 24 13 WNW 1020,1 15 -
16.01.2021 18:00:00 - - - - - - - -
16.01.2021 17:00:00 - - - - - - - -
16.01.2021 16:00:00 7,0 5,8 35 19 NW 1018,9 15 0
16.01.2021 15:00:00 - - - - - - - -
16.01.2021 14:00:00 - - - - - - - -
16.01.2021 13:00:00 8,0 0,5 37 20 N 1018,9 25 12
16.01.2021 12:00:00 - - - - - - - -
16.01.2021 11:00:00 - - - - - - - -
16.01.2021 10:00:00 8,4 1,8 37 20 N 1018,7 25 30
16.01.2021 09:00:00 - - - - - - - -
16.01.2021 08:00:00 - - - - - - - -
16.01.2021 07:00:00 7,8 1,9 44 24 N 1017,7 20 -
16.01.2021 06:00:00 - - - - - - - -
16.01.2021 05:00:00 - - - - - - - -
16.01.2021 04:00:00 - - - - - - - -
16.01.2021 03:00:00 - - - - - - - -
16.01.2021 02:00:00 - - - - - - - -
16.01.2021 01:00:00 - - - - - - - -
16.01.2021 00:00:00 - - - - - - - -
15.01.2021 23:00:00 - - - - - - - -
15.01.2021 22:00:00 - - - - - - - -
15.01.2021 21:00:00 - - - - - - - -
15.01.2021 20:00:00 - - - - - - - -
15.01.2021 19:00:00 8,6 2,2 8 4 SSW 1014,3 15 -
15.01.2021 18:00:00 - - - - - - - -
15.01.2021 17:00:00 - - - - - - - -
15.01.2021 16:00:00 8,4 6,2 0 0 N 1013,6 20 0
15.01.2021 15:00:00 - - - - - - - -
15.01.2021 14:00:00 - - - - - - - -
15.01.2021 13:00:00 10,0 5,4 0 0 N 1013,5 25 60
15.01.2021 12:00:00 - - - - - - - -
15.01.2021 11:00:00 - - - - - - - -
15.01.2021 10:00:00 8,0 4,2 8 4 S 1015,1 20 36
15.01.2021 09:00:00 - - - - - - - -
15.01.2021 08:00:00 - - - - - - - -
15.01.2021 07:00:00 7,6 4,4 0 0 N 1014,8 20 -
15.01.2021 06:00:00 - - - - - - - -
15.01.2021 05:00:00 - - - - - - - -
15.01.2021 04:00:00 - - - - - - - -
15.01.2021 03:00:00 - - - - - - - -
15.01.2021 02:00:00 - - - - - - - -
15.01.2021 01:00:00 - - - - - - - -
15.01.2021 00:00:00 - - - - - - - -
14.01.2021 23:00:00 - - - - - - - -
14.01.2021 22:00:00 - - - - - - - -
14.01.2021 21:00:00 - - - - - - - -
14.01.2021 20:00:00 - - - - - - - -
14.01.2021 19:00:00 11,2 9,1 26 14 WNW 1009,6 15 -
14.01.2021 18:00:00 - - - - - - - -
14.01.2021 17:00:00 - - - - - - - -
14.01.2021 16:00:00 13,0 10,2 4 2 W 1007,5 20 60
14.01.2021 15:00:00 - - - - - - - -
14.01.2021 14:00:00 - - - - - - - -

tt = temperature
td = dewpoint
ff = wind speed
dd = wind direction
ppp = reduced air pressure
vv = visibility
sd = sunshine duration

Next stations